TimeEST,TemperatureF,Dew PointF,Humidity,Sea Level PressureIn,VisibilityMPH,Wind Direction,Wind SpeedMPH,Gust SpeedMPH,PrecipitationIn,Events,Conditions,WindDirDegrees,DateUTC
12:54 AM,30.9,21.9,69,30.23,10.0,Calm,Calm,-,N/A,,Overcast,0,2012-11-27 05:54:00
1:54 AM,33.1,21.0,61,30.24,10.0,Calm,Calm,-,N/A,,Overcast,0,2012-11-27 06:54:00
2:54 AM,32.0,23.0,69,30.24,10.0,Calm,Calm,-,N/A,,Overcast,0,2012-11-27 07:54:00
3:54 AM,32.0,24.1,73,30.25,10.0,Calm,Calm,-,N/A,,Overcast,0,2012-11-27 08:54:00
4:22 AM,30.2,24.8,80,30.22,4.0,Calm,Calm,-,0.00,Snow,Light Snow,0,2012-11-27 09:22:00
4:32 AM,30.2,24.8,80,30.22,2.0,Calm,Calm,-,0.00,Snow,Light Snow,0,2012-11-27 09:32:00
4:40 AM,30.2,26.6,86,30.23,1.8,Calm,Calm,-,0.00,Snow,Light Snow,0,2012-11-27 09:40:00
4:54 AM,30.0,26.1,85,30.25,1.8,Calm,Calm,-,0.00,Snow,Light Snow,0,2012-11-27 09:54:00
5:03 AM,30.2,26.6,86,30.23,1.2,Calm,Calm,-,0.01,Snow,Light Snow,0,2012-11-27 10:03:00
5:40 AM,28.4,26.6,93,30.22,1.5,Calm,Calm,-,0.02,Snow,Light Snow,0,2012-11-27 10:40:00
5:54 AM,28.9,27.0,92,30.25,1.2,Calm,Calm,-,0.03,Snow,Light Snow,0,2012-11-27 10:54:00
6:06 AM,30.2,28.4,93,30.22,1.2,Calm,Calm,-,0.00,Snow,Light Snow,0,2012-11-27 11:06:00
6:54 AM,30.0,28.0,92,30.25,1.0,Calm,Calm,-,0.03,Snow,Light Snow,0,2012-11-27 11:54:00
7:07 AM,30.2,28.4,93,30.22,1.2,Calm,Calm,-,0.01,Snow,Light Snow,0,2012-11-27 12:07:00
7:42 AM,30.2,28.4,93,30.23,0.5,NE,4.6,-,0.02,Fog-Snow,Snow,40,2012-11-27 12:42:00
7:54 AM,30.0,28.9,96,30.26,0.5,NE,3.5,-,0.03,Fog-Snow,Snow,40,2012-11-27 12:54:00
8:51 AM,30.2,30.2,100,30.23,0.5,NE,3.5,-,0.02,Fog-Snow,Snow,40,2012-11-27 13:51:00
8:54 AM,30.9,30.0,96,30.25,0.5,NE,3.5,-,0.02,Fog-Snow,Snow,50,2012-11-27 13:54:00
9:44 AM,32.0,30.2,93,30.24,0.2,Calm,Calm,-,0.04,Fog-Snow,Snow,0,2012-11-27 14:44:00
9:54 AM,32.0,30.0,92,30.27,0.2,Calm,Calm,-,0.04,Fog-Snow,Snow,0,2012-11-27 14:54:00
10:07 AM,32.0,30.2,93,30.24,0.2,Calm,Calm,-,0.01,Fog-Snow,Snow,0,2012-11-27 15:07:00
10:54 AM,33.1,30.9,92,30.27,0.2,Calm,Calm,-,0.04,Fog-Snow,Snow,0,2012-11-27 15:54:00
11:54 AM,33.1,30.9,92,30.25,0.2,Calm,Calm,-,0.02,Fog-Snow,Snow,0,2012-11-27 16:54:00
12:54 PM,34.0,30.9,89,30.24,0.2,Calm,Calm,-,0.03,Snow,Light Snow,0,2012-11-27 17:54:00
1:02 PM,33.8,30.2,87,30.22,0.8,Calm,Calm,-,0.00,Snow,Light Snow,0,2012-11-27 18:02:00
1:45 PM,33.8,32.0,93,30.20,0.2,Calm,Calm,-,0.02,Fog-Snow,Snow,0,2012-11-27 18:45:00
1:54 PM,33.1,32.0,96,30.23,0.5,Calm,Calm,-,0.02,Fog-Snow,Light Snow,0,2012-11-27 18:54:00
2:29 PM,33.8,32.0,93,30.19,1.0,Calm,Calm,-,0.00,Snow,Light Snow,0,2012-11-27 19:29:00
2:54 PM,34.0,32.0,92,30.22,1.8,Calm,Calm,-,0.00,,Overcast,0,2012-11-27 19:54:00
3:09 PM,33.8,32.0,93,30.20,2.0,NNW,3.5,-,N/A,,Overcast,330,2012-11-27 20:09:00
3:18 PM,33.8,32.0,93,30.20,2.5,NNW,3.5,-,N/A,,Overcast,340,2012-11-27 20:18:00
3:29 PM,33.8,32.0,93,30.20,3.0,Calm,Calm,-,N/A,,Overcast,0,2012-11-27 20:29:00
3:38 PM,33.8,32.0,93,30.20,4.0,Calm,Calm,-,N/A,,Overcast,0,2012-11-27 20:38:00
3:54 PM,34.0,32.0,92,30.22,4.0,Calm,Calm,-,N/A,,Overcast,0,2012-11-27 20:54:00
4:44 PM,33.8,32.0,93,30.20,3.0,Calm,Calm,-,N/A,,Overcast,0,2012-11-27 21:44:00
4:54 PM,34.0,32.0,92,30.22,4.0,WNW,3.5,-,N/A,,Overcast,290,2012-11-27 21:54:00
5:54 PM,34.0,30.9,89,30.24,7.0,NNW,3.5,-,N/A,,Overcast,330,2012-11-27 22:54:00
7:07 PM,33.8,32.0,93,30.21,5.0,Calm,Calm,-,N/A,,Overcast,0,2012-11-28 00:07:00
7:54 PM,33.1,30.9,92,30.25,6.0,Calm,Calm,-,N/A,,Overcast,0,2012-11-28 00:54:00
8:54 PM,33.1,30.9,92,30.24,5.0,Calm,Calm,-,N/A,,Overcast,0,2012-11-28 01:54:00
9:54 PM,33.1,30.0,89,30.25,7.0,Calm,Calm,-,N/A,,Overcast,0,2012-11-28 02:54:00
10:54 PM,33.1,27.0,78,30.26,9.0,WNW,5.8,-,N/A,,Overcast,300,2012-11-28 03:54:00
11:54 PM,30.0,28.0,92,30.24,5.0,Calm,Calm,-,N/A,,Clear,0,2012-11-28 04:54:00